Torna al catalogo

STARLINK-32349

AttivoComunicazioniVLEO
NORAD 61700·PAYLOAD·🇺🇸 United States

Lanciato Oct 30, 2024 da Vandenberg Space Force Base

Loading…

Prossimi Passaggi (prossime 24 ore)

TLE

AggiornatoSource: CelesTrak SupGP

Epoca: Sep 14, 2026, 21:02 UTC

1 61700C 24195P   26257.87687500 -.00003021  00000+0 -89282-4 0  2575
2 61700  53.1585 355.6483 0001175  88.3681 155.7158 15.34377633    10

Traccia STARLINK-32349 in tempo reale con AllMySat

Download on the App Store